GW3847 Weather Reports


time (UTC)temp
C
wind
direction
speed
KPH
gust
KPH
rain 1hr
cm
rain 24hr
cm
rain mn
cm
humidity
%
barometer
mb
20260504182707 20 111 3.2 14.5 0.00 0.00 0.00 35 1008.5
20260504182204 18 99 8.0 12.9 0.00 0.00 0.00 35 1008.6
20260504181701 18 115 8.0 14.5 0.00 0.00 0.00 36 1008.6
20260504181158 18 87 1.6 12.9 0.00 0.00 0.00 38 1008.5
20260504180657 20 63 3.2 11.3 0.00 0.00 0.00 35 1008.6
20260504180155 20 59 6.4 12.9 0.00 0.00 0.00 33 1008.5
20260504175652 20 89 6.4 12.9 0.00 0.00 0.00 34 1008.6
20260504175149 20 308 0.0 9.7 0.00 0.00 0.00 34 1008.5
20260504174647 19 325 6.4 16.1 0.00 0.00 0.00 35 1008.4
20260504174144 20 287 1.6 11.3 0.00 0.00 0.00 34 1008.5
20260504173641 20 261 4.8 24.1 0.00 0.00 0.00 34 1008.8
20260504173138 20 239 3.2 11.3 0.00 0.00 0.00 35 1008.6
20260504172635 19 115 1.6 24.1 0.00 0.00 0.00 35 1008.8
20260504172131 18 95 3.2 9.7 0.00 0.00 0.00 35 1008.5
20260504171628 18 122 3.2 11.3 0.00 0.00 0.00 36 1008.7
20260504171125 18 91 3.2 4.8 0.00 0.00 0.00 36 1008.5
20260504170621 17 197 1.6 4.8 0.00 0.00 0.00 36 1008.8
20260504170119 18 285 6.4 22.5 0.00 0.00 0.00 36 1008.9
20260504151004 15 112 6.4 11.3 0.00 0.00 0.00 41 1009.7
20260504150502 15 192 6.4 11.3 0.00 0.00 0.00 40 1009.8
20260504140928 15 132 9.7 16.1 0.00 0.00 0.00 41 1010.0
20260504140424 15 308 3.2 6.4 0.00 0.00 0.00 42 1009.9
20260504130349 12 91 1.6 6.4 0.00 0.00 0.00 50 1010.6
20260504120312 8 140 0.0 6.4 0.00 0.00 0.00 63 1011.3
20260504110236 4 148 0.0 0.0 0.00 0.00 0.00 82 1011.2
20260504100154 3 128 0.0 0.0 0.00 0.00 0.00 85 1011.0
20260504090117 3 150 0.0 0.0 0.00 0.00 0.00 82 1010.8
20260504081552 5 141 0.0 1.6 0.00 0.00 0.00 74 1010.9
20260504081048 3 159 0.0 4.8 0.00 0.00 0.00 77 1011.0
20260504080545 3 167 0.0 0.0 0.00 0.00 0.00 81 1011.0
20260504050358 0 294 0.0 0.0 0.00 0.00 0.00 86 1011.1
20260504045855 0 294 0.0 0.0 0.00 0.00 0.00 86 1011.0
20260504045350 0 294 0.0 0.0 0.00 0.00 0.00 86 1011.2
20260504044847 0 294 0.0 0.0 0.00 0.00 0.00 86 1011.2
20260504044345 0 294 0.0 0.0 0.00 0.00 0.00 87 1011.2
20260504043842 0 294 0.0 0.0 0.00 0.00 0.00 88 1011.1
20260504043338 0 294 0.0 0.0 0.00 0.00 0.00 88 1011.2
20260504042836 0 294 0.0 0.0 0.00 0.00 0.00 88 1011.1
20260504042332 0 294 0.0 0.0 0.00 0.00 0.00 88 1011.3
20260504041828 0 294 0.0 0.0 0.00 0.00 0.00 89 1011.1
20260504041325 -1 294 0.0 0.0 0.00 0.00 0.00 88 1011.3
20260504040821 -1 294 0.0 0.0 0.00 0.00 0.00 88 1011.1
20260504040319 -1 294 0.0 0.0 0.00 0.00 0.00 87 1011.0
20260504035815 -1 294 0.0 0.0 0.00 0.00 0.00 87 1010.9
20260504035312 -1 294 0.0 0.0 0.00 0.00 0.00 87 1010.9
20260504034809 0 294 0.0 0.0 0.00 0.00 0.00 87 1010.9
20260504034307 0 294 0.0 0.0 0.00 0.00 0.00 86 1010.9
20260504033804 0 294 0.0 0.0 0.00 0.00 0.00 86 1010.9
20260504033302 0 294 0.0 0.0 0.00 0.00 0.00 86 1011.0
20260504032758 0 294 0.0 0.0 0.00 0.00 0.00 87 1010.7
20260504032255 0 294 0.0 0.0 0.00 0.00 0.00 87 1010.9
20260504031752 -1 294 0.0 0.0 0.00 0.00 0.00 87 1011.0
20260504031249 -1 294 0.0 0.0 0.00 0.00 0.00 86 1010.9
20260504030745 0 294 0.0 0.0 0.00 0.00 0.00 85 1010.8
20260504030243 0 294 0.0 0.0 0.00 0.00 0.00 83 1010.8
20260504025739 0 294 0.0 0.0 0.00 0.00 0.00 82 1010.7
20260504025236 0 294 0.0 0.0 0.00 0.00 0.00 82 1010.9
20260504024733 0 294 0.0 0.0 0.00 0.00 0.00 81 1010.9
20260504024229 0 294 0.0 0.0 0.00 0.00 0.00 80 1010.8
20260504023726 0 294 0.0 0.0 0.00 0.00 0.00 79 1011.0
20260504023222 0 294 0.0 0.0 0.00 0.00 0.00 79 1010.7
20260504022718 0 294 0.0 0.0 0.00 0.00 0.00 80 1010.9
20260504022215 0 294 0.0 0.0 0.00 0.00 0.00 81 1010.9
20260504021712 0 294 0.0 0.0 0.00 0.00 0.00 79 1010.9
20260504021209 0 294 0.0 0.0 0.00 0.00 0.00 79 1010.8
20260504020706 0 294 0.0 0.0 0.00 0.00 0.00 78 1010.9
20260504020202 0 294 0.0 0.0 0.00 0.00 0.00 78 1011.0
20260504015658 0 294 0.0 0.0 0.00 0.00 0.00 77 1010.8
20260504015155 1 294 0.0 0.0 0.00 0.00 0.00 75 1010.9
20260504014650 1 294 0.0 0.0 0.00 0.00 0.00 75 1010.6
20260504014148 1 294 0.0 0.0 0.00 0.00 0.00 77 1010.8
20260504013646 1 294 0.0 0.0 0.00 0.00 0.00 76 1010.7
20260504013142 1 294 0.0 0.0 0.00 0.00 0.00 75 1010.7
20260504012639 1 294 0.0 0.0 0.00 0.00 0.00 75 1010.6
20260504012137 1 294 0.0 0.0 0.00 0.00 0.00 74 1010.5
20260504011634 1 294 0.0 0.0 0.00 0.00 0.00 73 1010.5
20260504011131 2 294 0.0 0.0 0.00 0.00 0.00 72 1010.4
20260504010626 2 294 0.0 0.0 0.00 0.00 0.00 72 1010.4
20260504010122 2 294 0.0 0.0 0.00 0.00 0.00 70 1010.2
20260504005619 2 295 0.0 0.0 0.00 0.00 0.00 71 1010.1
20260504005116 2 294 0.0 0.0 0.00 0.00 0.00 69 1010.0
20260504004615 2 295 0.0 0.0 0.00 0.00 0.00 68 1010.0
20260504004111 3 295 0.0 0.0 0.00 0.00 0.00 70 1009.9
20260504003608 3 295 0.0 0.0 0.00 0.00 0.00 67 1010.0
20260504003104 3 295 0.0 0.0 0.00 0.00 0.00 66 1009.9
20260504002601 3 295 0.0 0.0 0.00 0.00 0.00 65 1009.9
20260504002059 4 295 0.0 0.0 0.00 0.00 0.00 59 1010.0
20260504001556 4 295 0.0 0.0 0.00 0.00 0.00 58 1009.8
20260504001052 5 295 0.0 0.0 0.00 0.00 0.00 66 1009.8
20260504000549 5 295 0.0 0.0 0.00 0.00 0.00 61 1009.9
20260504000046 5 295 0.0 0.0 0.00 0.00 0.00 54 1009.6
20260503235545 6 7 0.0 0.0 0.00 0.00 0.00 54 1009.7
20260503235041 6 327 0.0 0.0 0.00 0.00 0.00 53 1009.5
20260503234539 6 327 0.0 0.0 0.00 0.00 0.00 50 1009.6
20260503234037 6 227 0.0 0.0 0.00 0.00 0.00 50 1009.6
20260503233533 7 297 0.0 0.0 0.00 0.00 0.00 50 1009.7
20260503233029 7 241 0.0 4.8 0.00 0.00 0.00 48 1009.4
20260503232527 7 202 0.0 1.6 0.00 0.00 0.00 49 1009.4
20260503232024 7 186 0.0 0.0 0.00 0.00 0.00 49 1009.5
20260503231522 7 264 0.0 6.4 0.00 0.00 0.00 48 1009.5
20260503231018 8 320 0.0 0.0 0.00 0.00 0.00 48 1009.3
20260503230515 8 56 0.0 1.6 0.00 0.00 0.00 47 1009.4
20260503230013 8 284 0.0 1.6 0.00 0.00 0.00 46 1009.1
20260503225509 8 2 0.0 0.0 0.00 0.00 0.00 47 1009.3
20260503225004 8 69 0.0 1.6 0.00 0.00 0.00 45 1009.1
20260503224501 8 258 0.0 3.2 0.00 0.00 0.00 44 1009.2
20260503223959 8 288 0.0 4.8 0.00 0.00 0.00 44 1009.2
20260503223456 8 349 1.6 6.4 0.00 0.00 0.00 44 1009.1
20260503222951 8 341 4.8 6.4 0.00 0.00 0.00 44 1009.2
20260503222450 9 3 1.6 9.7 0.00 0.00 0.00 42 1009.3
20260503221948 10 137 3.2 6.4 0.00 0.00 0.00 40 1009.0
20260503221446 9 264 0.0 12.9 0.00 0.00 0.00 43 1009.3
20260503220943 9 79 0.0 1.6 0.00 0.00 0.00 44 1009.2
20260503220439 9 228 1.6 9.7 0.00 0.00 0.00 45 1009.1
20260503215936 9 314 0.0 1.6 0.00 0.00 0.00 44 1009.1
20260503215433 9 219 0.0 6.4 0.00 0.00 0.00 44 1009.0
20260503214931 10 65 0.0 4.8 0.00 0.00 0.00 44 1009.0
20260503214428 11 5 0.0 12.9 0.00 0.00 0.00 39 1008.9
20260503213925 11 156 1.6 1.6 0.00 0.00 0.00 39 1008.8
20260503213424 10 165 0.0 3.2 0.00 0.00 0.00 40 1009.0
20260503212920 9 223 0.0 3.2 0.00 0.00 0.00 43 1008.9
20260503212417 8 303 4.8 9.7 0.00 0.00 0.00 43 1008.9
20260503211915 9 199 4.8 9.7 0.00 0.00 0.00 42 1008.9
20260503211412 10 331 0.0 3.2 0.00 0.00 0.00 41 1008.8
20260503210907 10 308 6.4 11.3 0.00 0.00 0.00 39 1008.5
20260503210404 9 121 0.0 4.8 0.00 0.00 0.00 43 1008.6
20260503205858 10 148 3.2 4.8 0.00 0.00 0.00 42 1008.5
20260503205355 10 350 6.4 11.3 0.00 0.00 0.00 40 1008.5
20260503204852 11 277 3.2 6.4 0.00 0.00 0.00 38 1008.5
20260503204349 11 342 3.2 4.8 0.00 0.00 0.00 38 1008.5
20260503203846 10 310 0.0 6.4 0.00 0.00 0.00 40 1008.6
20260503203344 10 225 1.6 4.8 0.00 0.00 0.00 42 1008.6
20260503202841 10 163 4.8 6.4 0.00 0.00 0.00 39 1008.4
20260503202339 11 330 1.6 4.8 0.00 0.00 0.00 38 1008.1
20260503201837 10 315 3.2 4.8 0.00 0.00 0.00 42 1008.2
20260503201333 10 336 6.4 12.9 0.00 0.00 0.00 40 1008.5
20260503200831 11 238 3.2 9.7 0.00 0.00 0.00 40 1008.4
20260503200326 11 169 6.4 20.9 0.00 0.00 0.00 38 1008.3
20260503195824 11 123 3.2 12.9 0.00 0.00 0.00 39 1008.0
20260503195320 11 74 6.4 9.7 0.00 0.00 0.00 38 1008.0
20260503194818 10 156 0.0 11.3 0.00 0.00 0.00 41 1008.3
20260503194314 10 211 6.4 11.3 0.00 0.00 0.00 40 1008.5
20260503193810 9 296 3.2 6.4 0.00 0.00 0.00 41 1008.2
20260503193306 9 222 6.4 6.4 0.00 0.00 0.00 41 1008.1
20260503192802 9 339 12.9 24.1 0.00 0.00 0.00 41 1008.4
20260503192257 9 245 3.2 4.8 0.00 0.00 0.00 41 1008.3
20260503191754 10 49 6.4 14.5 0.00 0.00 0.00 40 1008.4
20260503191251 10 251 1.6 11.3 0.00 0.00 0.00 41 1007.9
20260503190748 10 346 0.0 6.4 0.00 0.00 0.00 41 1008.0
20260503190245 10 144 3.2 3.2 0.00 0.00 0.00 39 1008.0
20260503185742 10 73 0.0 6.4 0.00 0.00 0.00 38 1008.0
20260503185238 10 199 1.6 3.2 0.00 0.00 0.00 39 1008.0
20260503184732 10 49 3.2 4.8 0.00 0.00 0.00 39 1008.0
20260503184224 10 291 0.0 4.8 0.00 0.00 0.00 39 1008.0
20260503183720 10 103 1.6 6.4 0.00 0.00 0.00 39 1008.1
20260503183217 10 309 6.4 12.9 0.00 0.00 0.00 40 1008.1